Location: Cormont
(50.5693°N, 1.7416°E)
Time: 00:49:34
(UTC+00:00)

USA 238 DEB - Pass Details

Date: 21 October 2019
Orbit: 1028 x 1184 km, 63.4° (Epoch: 11 November)

Event Time Altitude Azimuth Distance (km) Brightness Sun altitude
Rises 18:58:13 0° 221° (SW) 3,783 7.0 -21.1°
Reaches altitude 10° 19:00:47 10° 222° (SW) 2,844 6.3 -21.5°
Maximum altitude 19:07:31 90° 309° (NW) 1,071 3.6 -22.5°
Enters shadow 19:12:34 20° 44° (NE) 2,263 5.1 -23.3°
